Simultaneous Nadir Overpasses (SNOs) Predictions

Prediction of SNOs between NOAA-19 and NPP Satellite Orbit:

Table of predicted SNOs for the next 14.0 days since TLE Epoch: 1/1/2016
Index Date (NOAA-19) Time (NOAA-19) Lat,Lon (NOAA-19) SZA (NOAA-19 ) Date (NPP) Time (NPP) Lat,Lon (NPP) SZA (NPP ) Distance(km) Time Diff (sec)
1 01/11/2016 18:21:48 -81.03, 31.21 73.51 01/11/2016 18:23:00 -81.03, 31.25 73.55 0.65 72
2 01/11/2016 19:12:46 81.03,-161.54 106.49 01/11/2016 19:13:45 81.03,-161.39 106.44 2.50 59
3 01/11/2016 20:03:50 -81.03, 5.81 73.53 01/11/2016 20:04:30 -81.03, 5.81 73.56 0.11 40
4 01/11/2016 20:54:48 81.03, 173.07 106.47 01/11/2016 20:55:15 81.03, 173.17 106.44 1.82 27
5 01/11/2016 21:45:52 -81.03, -19.59 73.56 01/11/2016 21:46:00 -81.03, -19.62 73.56 0.60 8
6 01/11/2016
